Regional Weather Roundup
Issued by NWS

Home | Current Version | Previous Version | Text Only | Print | Product List | Glossary On
Versions: 1 2 3 4 5 6 7 8 9 10 11 12 13 14 15 16 17 18 19 20 21 22 23 24 25 26 27 28 29 30 31 32 33 34 35 36 37 38 39 40 41 42 43 44 45 46 47 48 49 50
000
ASUS43 KMPX 290501
RWRMN
WEATHER ROUNDUP FOR MINNESOTA
NATIONAL WEATHER SERVICE TWIN CITIES/CHANHASSEN MN
1200 AM CDT THU SEP 29 2016


NOTE: "FAIR" INDICATES FEW OR NO CLOUDS BELOW 12,000 FEET WITH NO
SIGNIFICANT WEATHER AND/OR OBSTRUCTIONS TO VISIBILITY. N/A MEANS
CURRENT SKY AND/OR WEATHER CONDITIONS ARE NOT AVAILABLE.

MNZ060>063-068>070-290600-
   Twin Cities Metro

CITY           SKY/WX    TMP DP  RH WIND       PRES   REMARKS
TWIN CITIES    CLEAR     52  48  86 NE6       30.37R
ST PAUL        CLEAR     51  48  89 NW5       30.38R
CRYSTAL        CLEAR     48  45  89 N3        30.37R
BLAINE         CLEAR     52  50  93 N5        30.38R
LAKEVILLE      CLEAR     50  50 100 N3        30.37R
EDEN PRAIRIE   CLEAR     53  48  83 N5        30.36R
LAKEVILLE      CLEAR     50  50 100 N3        30.37R
SOUTH ST PAUL  CLEAR     53  48  84 N3        30.37R
LAKE ELMO      FAIR      50  48  93 N5        30.38R
$$
MNZ001>005-007-008-013>017-022>024-027-028-290600-
   Northwest Minnesota

CITY           SKY/WX    TMP DP  RH WIND       PRES   REMARKS
BEMIDJI        CLOUDY    51  46  86 CALM      30.42S
HALLOCK        CLEAR     46  45  93 CALM      30.42S
ROSEAU         HAZE      46  41  81 CALM      30.43S VSB 3/4
WARROAD        CLOUDY    46  43  87 CALM      30.44R
THIEF RVR FALL CLEAR     48  45  89 CALM      30.44R
CROOKSTON      CLEAR     52  45  76 SE3       30.43R
FOSSTON        PTCLDY    45  43  93 CALM      30.43S
DETROIT LAKES  CLEAR     50  46  87 E3        30.43S
MOORHEAD       CLEAR     48  45  87 E5        30.42R
PARK RAPIDS    CLOUDY    55  44  66 E5        30.42R
MAHNOMEN       FAIR      46  44  92 E7        30.42S
$$
MNZ006-009>011-018-025>026-290600-
   North Central Minnesota

CITY           SKY/WX    TMP DP  RH WIND       PRES   REMARKS
BAUDETTE       CLOUDY    51  47  86 NE3       30.43R
FLAG ISLAND    CLOUDY    55  52  88 CALM      30.42R
INTL FALLS     CLOUDY    54  49  83 NE3       30.43R
WASKISH        CLOUDY    52  48  87 CALM      30.43S
BIG FORK       CLOUDY    54  48  82 CALM      30.43R
GRAND RAPIDS   CLOUDY    53  50  89 CALM      30.43S
COOK           CLOUDY    54  50  87 CALM      30.43R
WALKER         CLOUDY    52  47  83 CALM      30.42S
$$
MNZ012-019>021-037-290600-
   Northeast Minnesota

CITY           SKY/WX    TMP DP  RH WIND       PRES   REMARKS
DULUTH         CLOUDY    53  50  89 CALM      30.40S
ELY            CLOUDY    54  50  87 CALM      30.42R
HIBBING        CLOUDY    50  49  96 NW3       30.42R
EVELETH        CLOUDY    53  49  87 CALM      30.42S
DULUTH HARBOR  CLOUDY    55  54  94 N6        30.41S
TWO HARBORS    CLOUDY    55  50  82 CALM      30.39S
SILVER BAY     CLOUDY    54  52  94 CALM      30.39S
GRAND MARAIS     N/A     55  52  89 E3        30.40R
G MARAIS ARPRT CLOUDY    50  45  81 N3        30.42S
$$
MNZ029>031-032-039>041-046>048-054>057-064-290600-
   West Central Minnesota

CITY           SKY/WX    TMP DP  RH WIND       PRES   REMARKS
FERGUS FALLS   CLEAR     48  45  87 E5        30.43S
MORRIS         MOCLDY    54  46  76 E5        30.40R
ALEXANDRIA     CLOUDY    50  45  83 NE5       30.43R
ELBOW LAKE     FAIR      51  46  84 SE6       30.42R
WADENA         CLOUDY    54  45  71 NE3       30.42R
GLENWOOD       CLEAR     50  45  81 N3        30.42R
BENSON         CLEAR     50  45  81 E3        30.41R
ORTONVILLE     CLEAR     48  45  87 CALM      30.40R
MADISON        CLEAR     52  48  87 E6        30.40R
WILLMAR        MOCLDY    50  48  93 N5        30.41S
$$
MNZ033>034-036-042>043-049>051-058-059-290600-
   Central Minnesota

CITY           SKY/WX    TMP DP  RH WIND       PRES   REMARKS
ST CLOUD       PTCLDY    52  49  89 N3        30.39R
SAUK CENTRE    CLOUDY    53  46  76 N3        30.41R
PAYNESVILLE    CLOUDY    51  50  96 CALM      30.41R
AITKIN         CLOUDY    54  48  82 CALM      30.40S
PINE RIVER     CLOUDY    54  48  82 CALM      30.44R
BRAINERD       CLOUDY    53  49  86 CALM      30.41S
STAPLES        CLOUDY    54  46  76 CALM      30.42R
LONG PRAIRIE   CLOUDY    52  45  76 CALM      30.42R
LITTLE FALLS   CLOUDY    52  46  82 CALM      30.41R
LITCHFIELD     CLEAR     54  48  82 CALM      30.40R
BUFFALO        CLEAR     51  47  87 CALM      30.39S
MAPLE LAKE     CLEAR     50  48  93 CALM      30.40R
HUTCHINSON     CLEAR     50  48  92 CALM      30.39S
$$
MNZ037-044-045-052-053-290600-
   East Central Minnesota

CITY           SKY/WX    TMP DP  RH WIND       PRES   REMARKS
PRINCETON      CLEAR     50  46  87 CALM      30.40R
MORA           CLEAR     46  45  93 CALM      30.41S
CAMBRIDGE      CLEAR     52  45  76 CALM      30.37S
MOOSE LAKE     CLOUDY    52  48  87 CALM      30.38S
HINCKLEY       FAIR      46  46 100 N3        30.40S
CLOQUET        CLOUDY    54  48  82 CALM      30.40S
MCGREGOR       CLOUDY    52  50  93 CALM      30.42R
$$
MNZ071>073-080-081-089-090-097-098-290600-
   Southwest Minnesota

CITY           SKY/WX    TMP DP  RH WIND       PRES   REMARKS
MONTEVIDEO     CLEAR     45  43  93 E6        30.41S
GRANITE FALLS  CLEAR     50  46  87 N3        30.41R
CANBY          CLEAR     44  43  95 CALM      30.41R
MARSHALL       CLEAR     44  43  96 NW5       30.40R
REDWOOD FALLS  CLEAR     53  46  77 CALM      30.38R
OLIVIA         CLEAR     50  45  81 N5        30.38S
PIPESTONE      CLEAR     46  43  87 CALM      30.38R
WINDOM         CLEAR     48  46  93 N6        30.38R
WORTHINGTON    CLEAR     46  44  93 N5        30.39R
JACKSON        CLEAR     46  43  87 N6        30.37S
TRACY          CLEAR     46  44  93 CALM      30.39R
$$
MNZ065>067-074>077-082>085-091>093-290600-
   South Central Minnesota

CITY           SKY/WX    TMP DP  RH WIND       PRES   REMARKS
MANKATO        CLEAR     53  49  86 NE8       30.36S
ST JAMES       CLEAR     48  46  93 CALM      30.38S
FAIRMONT       CLEAR     48  46  93 N6        30.36S
GLENCOE        CLEAR     50  50 100 CALM      30.37S
FARIBAULT      CLEAR     52  48  87 N6        30.36S
OWATONNA       CLEAR     50  46  87 N5        30.35R
WASECA         CLEAR     52  48  87 N6        30.37R
ALBERT LEA     CLOUDY    54  50  87 N6        30.34R
$$
MNZ078>079-086>088-094>096-290600-
   Southeast Minnesota

CITY           SKY/WX    TMP DP  RH WIND       PRES   REMARKS
ROCHESTER      CLEAR     53  50  89 N10       30.33S
RED WING       CLEAR     54  48  82 NE5       30.33S
DODGE CENTER   PTCLDY    52  48  87 N7        30.33S
WINONA         PTCLDY    55  50  82 N3        30.33R
AUSTIN         CLEAR     52  48  87 N5        30.32S
PRESTON        PTCLDY    52  49  88 N9        30.32S
$$
ABBREVIATIONS USED IN REMARKS
   TC - TEMPERATURES IN CELSIUS
  WCI - WIND CHILL INDEX
   HX - HEAT INDEX
  VSB - VISIBILITY
$$



USA.gov is the U.S. government's official web portal to all federal, state and local government web resources and services.